{"data":{"norad_id":62595,"epoch":"2026-09-21T19:29:48.087168Z","epoch_age_seconds":57880,"freshness":"FRESH","line1":"1 62595U 25008J   26264.81236212  .00127990  00000+0  98369-3 0  9992","line2":"2 62595  43.0036  23.6060 0002748 270.4596  89.5957 15.70885540 97985","mean_motion":15.7088554,"eccentricity":0.0002748,"inclination_deg":43.0036,"raan_deg":23.606,"arg_perigee_deg":270.4596,"mean_anomaly_deg":89.5957,"bstar":0.00098369,"rev_number":9798,"period_min":91.6680409446,"perigee_km":354.5142617472,"apogee_km":358.21554399302,"semimajor_km":6734.5019028701,"source":"CELESTRAK","updated_at":"2026-09-22T09:00:49.631924Z"}}